LGIRLGKO

Guest
Details From LGIR - Iraklion - Nizos Kazantzakis
To LGKO - KOS
Flight Number -
Tags generated
Created
Modified
Stats Distance 127 nm / 236 km
Max Altitude 5,500 ft / 1,676 m
Waypoints 3
Social Downloads 7
Likes 0
Share VATSIM

Download

Looking for another format? Having issues loading an existing format? Contact us
Advertisement - Login to hide

Notes

Basic altitude profile: - Ascent Rate: 2500ft/min - Ascent Speed: 250kts - Cruise Altitude: 35000ft - Cruise Speed: 420kts - Descent Rate: 1500ft/min - Descent Speed: 250kts Options: - Use NATs: yes - Use PACOTS: yes - Use low airways: yes - Use high airways: yes

Route

LGIR BIKRO LGKO

ID Type Via Altitude Latitude Longitude Leg Dist Tot Dist Heading (true) Name
O LGIR APT - 0 ft / 0 m 35.33949˚ 25.18012˚ - 0 nm - Iraklion - Nizos Kazantzakis
BIKRO FIX - 5,500 ft / 1,676 m 36.51333˚ 26.68111˚ 101 nm 101 nm 46° / 46° -
O LGKO APT - 0 ft / 0 m 36.79440˚ 27.09076˚ 25 nm 127 nm 49° / 50° KOS

Altitude Profile

Advertisement - Login to hide

LGIR

Details ICAO LGIR (HER)
Name Iraklion - Nizos Kazantzakis
Region Greece
Timezone Europe/Athens (UTC+3.0)
Stats Elevation 115 ft / 35 m (AMSL)
Location 35.339487° 25.180120°
Runways 3
Magnetic Variation 4.422° E

METAR

LGIR 262150Z 28013KT 9999 SCT020 SCT040 23/20 Q1011 NOSIG

Decode

TAF

TAF LGIR 261700Z 2618/2718 30018KT 9999 FEW018 SCT040 PROB30 TEMPO 2618/2718 5000 RA SCT015 BKN030 PROB30 TEMPO 2618/2621 5000 TSRA FEW018CB BKN020

Decode

Departure Runways

ID Width Length Bearing (true) Bearing (mag) Surface Threshold Offset Overrun Length
09 148 ft / 45 m 8,755 ft / 2,669 m 94.84° 90.42° Asphalt 1,565 ft / 477 m 200 ft / 61 m
12 164 ft / 50 m 5,136 ft / 1,566 m 126.27° 121.85° Asphalt 499 ft / 152 m 190 ft / 58 m
18 131 ft / 40 m 2,607 ft / 795 m 180.40° 175.98° Asphalt 0 ft / 0 m 0 ft / 0 m
27 148 ft / 45 m 8,755 ft / 2,669 m 274.86° 270.44° Asphalt 0 ft / 0 m 210 ft / 64 m
30 164 ft / 50 m 5,136 ft / 1,566 m 306.28° 301.86° Asphalt 0 ft / 0 m 0 ft / 0 m
36 131 ft / 40 m 2,607 ft / 795 m 0.40° 355.98° Asphalt 328 ft / 100 m 0 ft / 0 m

LGKO

Details ICAO LGKO (KGS)
Name KOS
Region Greece
Timezone Europe/Athens (UTC+3.0)
Stats Elevation 412 ft / 126 m (AMSL)
Location 36.794403° 27.090764°
Runways 1
Magnetic Variation 4.766° E

METAR

LGKO 262150Z VRB02KT 9999 FEW030 19/15 Q1009

Decode

TAF

TAF LGKO 261700Z 2618/2718 VRB05KT 9999 FEW018 SCT030 TEMPO 2618/2621 5000 TSRA FEW018CB BKN020 PROB30 TEMPO 2706/2715 5000 RA SCT015 BKN025

Decode

Destination Runways

ID Width Length Bearing (true) Bearing (mag) Surface Threshold Offset Overrun Length
14 148 ft / 45 m 7,923 ft / 2,415 m 148.29° 143.52° Asphalt 0 ft / 0 m 240 ft / 73 m
32 148 ft / 45 m 7,923 ft / 2,415 m 328.30° 323.53° Asphalt 0 ft / 0 m 205 ft / 62 m

Popular Alternatives